461  
AXUS43 KGID 240102  
MISGRI  
 
GID CWA HOURLY WEATHER ROUNDUP  
NATIONAL WEATHER SERVICE HASTINGS NE  
800 PM CDT SUN APR 23 2017  
 
NOTE: "FAIR" INDICATES FEW OR NO CLOUDS BELOW 12,000 FEET WITH NO  
SIGNIFICANT WEATHER AND/OR OBSTRUCTIONS TO VISIBILITY.  
   
..SOUTH CENTRAL NEBRASKA
 
 
 
CITY SKY/WX TMP DP RH WIND PRES REMARKS  
GRAND ISLAND CLOUDY 64 29 26 S18 29.85F  
HASTINGS CLOUDY 64 30 27 S16G26 29.87F  
KEARNEY CLOUDY 64 28 25 S22G29 29.84S  
ORD CLEAR 65 26 23 S14 29.79F  
YORK PTCLDY 64 27 24 S17G25 29.88F  
AURORA CLOUDY 64 29 27 S15G23 29.86F  
LEXINGTON CLOUDY 65 25 21 S21G28 29.80F  
HOLDREGE CLOUDY 63 29 27 S16G25 29.83F  
HEBRON CLOUDY 63 29 28 S12G18 29.91F  
   
..NEBRASKA PANHANDLE
 
 
 
CITY SKY/WX TMP DP RH WIND PRES REMARKS  
CHADRON CLOUDY 67 38 34 S12 29.60F  
ALLIANCE CLOUDY 66 40 38 S14G25 29.67F  
SCOTTSBLUFF CLOUDY 70 29 21 S9 29.65F  
SIDNEY CLOUDY 64 40 41 S17 29.70F  
   
..WESTERN AND NORTH CENTRAL NEBRASKA
 
 
 
CITY SKY/WX TMP DP RH WIND PRES REMARKS  
VALENTINE CLOUDY 69 36 29 S16 29.69F  
AINSWORTH MOCLDY 64 38 37 S13 29.72F  
ONEILL CLOUDY 65 24 20 S16G23 29.78S  
BROKEN BOW CLOUDY 65 25 22 S16G29 29.78F  
IMPERIAL CLOUDY 64 37 36 S20 29.74F  
NORTH PLATTE MOCLDY 66 36 32 S17G28 29.75F  
MCCOOK CLOUDY 65 35 33 S17G31 29.78F  
   
..EASTERN NEBRASKA
 
 
 
CITY SKY/WX TMP DP RH WIND PRES REMARKS  
NORFOLK CLEAR 65 25 22 S20G26 29.82F  
SO SIOUX CITY CLOUDY 67 27 22 S15 29.85F  
TEKAMAH CLEAR 64 34 32 S17 29.88F  
COLUMBUS CLEAR 66 28 24 S15G25 29.87F  
ALBION CLEAR 65 26 22 S17G25 29.83F  
OMAHA EPPLEY MOCLDY 69 28 21 S14 29.91F  
OFFUTT AFB CLEAR 66 26 22 S10 29.92S  
MILLARD CLEAR 69 32 25 S7 29.91F  
LINCOLN CLEAR 64 29 26 S15 29.92S  
NEBRASKA CITY CLEAR 63 21 19 S10 29.94S  
BEATRICE CLOUDY 63 31 29 S10 29.94S  
FALLS CITY PTCLDY 63 33 32 S8 29.95F  
   
..NORTHERN KANSAS
 
 
 
CITY SKY/WX TMP DP RH WIND PRES REMARKS  
GOODLAND CLOUDY 63 39 41 S21 29.76F  
HILL CITY CLOUDY 64 32 30 S16G30 29.86F  
NORTON CLEAR 63 25 23 SE17 29.82F  
PHILLIPSBURG CLEAR 64 32 29 S16G22 29.86F  
SMITH CENTER MOCLDY 61 34 36 S17 29.88F  
HAYS CLOUDY 62 37 39 S15 29.90F  
RUSSELL CLOUDY 61 37 41 S16 29.90F  
CONCORDIA CLOUDY 60 39 45 S13 29.93F  
SALINA CLOUDY 62 39 42 S12 29.95F  
TOPEKA CLOUDY 65 36 34 S5 29.98F  
 
CLICK HERE TO GO TO PREVIOUS BULLETINS.

The Nexlab NE Page
The Nexlab KS Page Main Text Page